M I D A S
Marine Information and Data Acquisition System
Tripno 1479 of the Zeeleeuw from 2008-05-05 14:10:10 to 2008-05-05 14:39:50
Back to CruiseResearch ActivitiesStationsMapUnderway DataData graphs

EquipmentUnitsComment
TimeDGPSUTC
LatitudeDGPSDM.mWGS84
LongitudeDGPSDM.mWGS84
HeadingGyrodeg 
SOGDGPSknotsSpeed over ground
COGDGPSdegCourse over ground
DepthEcho soundermeters200 kHz
Missing or incorrect values are displayed as -999
Navigation data collected by the RV Zeeleeuw from 2008-05-05 09:10:15 to 2008-05-05 14:53:45
                                                                                    Next 1000 lines
Time Latitude Longitude Heading SOG COG Depth
2008-05-05 09:10:25 51°14.599 2°54.009 100.5 11.5 105 11
2008-05-05 09:10:30 51°14.595 2°54.034 100.8 11.5 104 11
2008-05-05 09:10:35 51°14.592 2°54.059 100.7 11.6 104 11.1
2008-05-05 09:10:40 51°14.588 2°54.084 100.3 11.6 103 11
2008-05-05 09:10:45 51°14.585 2°54.108 100.1 11.6 103 11.1
2008-05-05 09:10:50 51°14.581 2°54.134 100.1 11.6 102 11
2008-05-05 09:10:55 51°14.578 2°54.159 99.8 11.6 103 11
2008-05-05 09:11:00 51°14.574 2°54.183 99.6 11.6 103 11
2008-05-05 09:11:05 51°14.571 2°54.209 100.1 11.6 102 10.9
2008-05-05 09:11:10 51°14.567 2°54.234 100.1 11.6 103 10.9
2008-05-05 09:11:15 51°14.564 2°54.259 99.9 11.5 101 10.8
2008-05-05 09:11:19 51°14.562 2°54.279 98.2 11.5 102 10.8
2008-05-05 09:11:24 51°14.557 2°54.303 98.7 11.5 105 10.8
2008-05-05 09:11:30 51°14.552 2°54.333 101.1 11.5 106 10.8
2008-05-05 09:11:35 51°14.547 2°54.357 103.2 11.5 106 10.7
2008-05-05 09:11:40 51°14.544 2°54.382 103.6 11.5 104 10.7
2008-05-05 09:11:44 51°14.541 2°54.402 101.9 11.5 103 10.6
2008-05-05 09:11:50 51°14.537 2°54.431 99.8 11.5 102 10.6
2008-05-05 09:11:55 51°14.533 2°54.456 98.7 11.5 104 10.5
2008-05-05 09:12:00 51°14.529 2°54.481 99.6 11.5 104 10.5
2008-05-05 09:12:04 51°14.526 2°54.501 100.5 11.5 105 10.5
2008-05-05 09:12:10 51°14.521 2°54.529 102 11.3 107 10.4
2008-05-05 09:12:15 51°14.517 2°54.553 102.9 11.1 106 10.5
2008-05-05 09:12:20 51°14.512 2°54.576 103 11.1 108 10.5
2008-05-05 09:12:25 51°14.506 2°54.599 104.3 11 111 10.5
2008-05-05 09:12:30 51°14.5 2°54.621 106.7 10.9 112 10.5
2008-05-05 09:12:35 51°14.494 2°54.643 108.2 10.8 114 10.5
2008-05-05 09:12:40 51°14.488 2°54.664 109.9 10.8 116 10.5
2008-05-05 09:12:45 51°14.481 2°54.686 111.7 10.7 115 10.6
2008-05-05 09:12:50 51°14.475 2°54.706 111.9 10.6 116 10.6
2008-05-05 09:12:55 51°14.468 2°54.727 112.4 10.4 117 10.6
2008-05-05 09:13:00 51°14.462 2°54.746 113.2 10 117 10.6
2008-05-05 09:13:05 51°14.456 2°54.765 113.1 9.7 116 10.7
2008-05-05 09:13:10 51°14.451 2°54.784 112.7 9.4 116 10.8
2008-05-05 09:13:15 51°14.445 2°54.802 112.3 9.2 117 10.8
2008-05-05 09:13:19 51°14.441 2°54.816 112.3 9 115 10.9
2008-05-05 09:13:25 51°14.434 2°54.837 111.8 8.8 116 10.8
2008-05-05 09:13:30 51°14.429 2°54.854 112.1 8.7 117 10.8
2008-05-05 09:13:35 51°14.423 2°54.871 112.9 8.6 117 10.8
2008-05-05 09:13:39 51°14.419 2°54.884 113.9 8.5 118 10.8
2008-05-05 09:13:44 51°14.414 2°54.901 114.7 8.5 117 10.7
2008-05-05 09:13:50 51°14.407 2°54.921 114.5 8.5 116 10.7
2008-05-05 09:13:55 51°14.403 2°54.938 113.7 8.5 115 10.7
2008-05-05 09:14:00 51°14.397 2°54.955 113.6 8.5 117 10.6
2008-05-05 09:14:04 51°14.393 2°54.968 114.4 8.5 116 10.6
2008-05-05 09:14:10 51°14.387 2°54.989 114.4 8.6 118 10.4
2008-05-05 09:14:15 51°14.381 2°55.005 114.9 8.6 119 10.7
2008-05-05 09:14:20 51°14.375 2°55.021 116.9 8.6 120 11.1
2008-05-05 09:14:25 51°14.368 2°55.038 118.2 8.6 121 11.2
2008-05-05 09:14:30 51°14.362 2°55.054 119.1 8.6 121 11.2
2008-05-05 09:14:35 51°14.356 2°55.07 119.5 8.7 121 10.9
2008-05-05 09:14:40 51°14.35 2°55.086 119.9 8.7 122 11.3
2008-05-05 09:14:45 51°14.343 2°55.102 121.1 8.7 124 11.1
2008-05-05 09:14:50 51°14.336 2°55.118 122.6 8.7 124 11
2008-05-05 09:14:55 51°14.329 2°55.134 123.2 8.7 124 10.9
2008-05-05 09:15:00 51°14.322 2°55.15 123.7 8.7 125 10.7
2008-05-05 09:15:05 51°14.315 2°55.165 124.6 8.7 126 10.6
2008-05-05 09:15:10 51°14.308 2°55.18 125.7 8.7 127 10.4
2008-05-05 09:15:15 51°14.301 2°55.196 126.9 8.7 128 10.6
2008-05-05 09:15:20 51°14.293 2°55.21 128.3 8.7 129 10.4
2008-05-05 09:15:25 51°14.285 2°55.225 129.2 8.7 129 10.4
2008-05-05 09:15:30 51°14.278 2°55.24 129.3 8.7 129 10.5
2008-05-05 09:15:35 51°14.27 2°55.255 129 8.7 130 10.5
2008-05-05 09:15:39 51°14.264 2°55.266 129.4 8.7 131 10.7
2008-05-05 09:15:45 51°14.254 2°55.283 130.5 8.6 132 10.7
2008-05-05 09:15:50 51°14.246 2°55.297 132 8.6 134 10.7
2008-05-05 09:15:55 51°14.237 2°55.31 133.5 8.6 136 10.7
2008-05-05 09:16:00 51°14.229 2°55.323 135 8.6 137 -999
2008-05-05 09:16:05 51°14.22 2°55.335 137.5 8.5 140 -999
2008-05-05 09:16:10 51°14.211 2°55.347 139.3 8.5 141 11
2008-05-05 09:16:15 51°14.201 2°55.358 140.8 8.4 143 11.1
2008-05-05 09:16:20 51°14.192 2°55.368 142.5 8.4 145 -999
2008-05-05 09:16:25 51°14.182 2°55.378 145 8.4 147 -999
2008-05-05 09:16:30 51°14.172 2°55.387 147.5 8.3 149 -999
2008-05-05 09:16:35 51°14.162 2°55.397 147.9 8.3 148 -999
2008-05-05 09:16:40 51°14.152 2°55.406 148.3 8.3 150 -999
2008-05-05 09:16:45 51°14.142 2°55.415 149.4 8.2 151 -999
2008-05-05 09:16:50 51°14.133 2°55.423 150.9 7.9 152 -999
2008-05-05 09:16:55 51°14.124 2°55.431 152.2 7.5 152 -999
2008-05-05 09:17:00 51°14.115 2°55.438 152.9 7.2 153 -999
2008-05-05 09:17:05 51°14.106 2°55.445 153.7 7 154 -999
2008-05-05 09:17:10 51°14.097 2°55.452 154.2 6.8 155 -999
2008-05-05 09:17:15 51°14.089 2°55.457 155.1 6.6 155 -999
2008-05-05 09:17:20 51°14.081 2°55.463 155.6 6.2 156 -999
2008-05-05 09:17:25 51°14.074 2°55.468 156 6 156 -999
2008-05-05 09:17:30 51°14.066 2°55.473 156 5.7 156 -999
2008-05-05 09:17:35 51°14.059 2°55.478 156 5.6 157 -999
2008-05-05 09:17:40 51°14.053 2°55.483 156 5.3 157 -999
2008-05-05 09:17:45 51°14.046 2°55.488 156 5.1 156 -999
2008-05-05 09:17:50 51°14.04 2°55.492 156 5 156 -999
2008-05-05 09:17:55 51°14.034 2°55.496 155.6 4.8 155 -999
2008-05-05 09:18:00 51°14.028 2°55.501 154.9 4.8 155 -999
2008-05-05 09:18:05 51°14.022 2°55.505 154.5 4.6 154 -999
2008-05-05 09:18:10 51°14.016 2°55.51 154.2 4.6 155 -999
2008-05-05 09:18:15 51°14.01 2°55.514 154.2 4.6 155 -999
2008-05-05 09:18:20 51°14.004 2°55.518 154.9 4.6 155 -999
2008-05-05 09:18:25 51°13.998 2°55.522 156.2 4.6 156 -999
2008-05-05 09:18:30 51°13.992 2°55.526 157.7 4.7 158 -999
2008-05-05 09:18:35 51°13.986 2°55.53 158.3 4.7 157 -999
2008-05-05 09:18:40 51°13.98 2°55.534 158 4.8 157 -999
2008-05-05 09:18:45 51°13.974 2°55.538 156.7 4.8 156 -999
2008-05-05 09:18:50 51°13.968 2°55.543 155.7 4.9 156 -999
2008-05-05 09:18:55 51°13.961 2°55.547 155.2 5 155 -999
2008-05-05 09:19:00 51°13.955 2°55.552 155.2 5 156 -999
2008-05-05 09:19:05 51°13.948 2°55.557 155.8 5.2 156 -999
2008-05-05 09:19:10 51°13.942 2°55.561 156.3 5.2 157 -999
2008-05-05 09:19:15 51°13.935 2°55.566 156.7 5.2 157 -999
2008-05-05 09:19:20 51°13.928 2°55.57 156.7 5.3 157 -999
2008-05-05 09:19:25 51°13.922 2°55.575 156.4 5.3 156 -999
2008-05-05 09:19:30 51°13.915 2°55.58 156.1 5.4 156 -999
2008-05-05 09:19:35 51°13.908 2°55.584 156.1 5.4 157 -999
2008-05-05 09:19:40 51°13.901 2°55.589 156.5 5.4 157 -999
2008-05-05 09:19:45 51°13.894 2°55.594 156.7 5.4 157 -999
2008-05-05 09:19:50 51°13.887 2°55.598 156.7 5.4 157 -999
2008-05-05 09:19:55 51°13.88 2°55.603 156.4 5.4 156 -999
2008-05-05 09:20:00 51°13.873 2°55.608 156.2 5.4 156 -999
2008-05-05 09:20:05 51°13.866 2°55.613 156.2 5.4 157 -999
2008-05-05 09:20:10 51°13.859 2°55.617 156.3 5.5 156 10.8
2008-05-05 09:20:15 51°13.852 2°55.622 156.3 5.4 156 10.7
2008-05-05 09:20:19 51°13.847 2°55.626 156 5.5 156 10.5
2008-05-05 09:20:24 51°13.84 2°55.631 155.8 5.5 156 10.6
2008-05-05 09:20:30 51°13.832 2°55.637 155.8 5.5 156 -999
2008-05-05 09:20:35 51°13.825 2°55.642 155.9 5.4 156 10.5
2008-05-05 09:20:40 51°13.818 2°55.647 156 5.3 156 -999
2008-05-05 09:20:45 51°13.812 2°55.651 156.4 5.2 156 10.5
2008-05-05 09:20:50 51°13.805 2°55.656 156.6 5 155 -999
2008-05-05 09:20:55 51°13.799 2°55.66 156 4.8 154 10.3
2008-05-05 09:21:00 51°13.794 2°55.665 154.5 4.7 153 -999
2008-05-05 09:21:05 51°13.788 2°55.67 152.7 4.5 151 -999
2008-05-05 09:21:10 51°13.783 2°55.675 150 4.4 149 -999
2008-05-05 09:21:15 51°13.778 2°55.68 147.4 4.3 146 -999
2008-05-05 09:21:20 51°13.773 2°55.686 145.3 4.2 144 -999
2008-05-05 09:21:25 51°13.769 2°55.692 142.4 4.1 141 -999
2008-05-05 09:21:30 51°13.764 2°55.697 139.5 4 138 -999
2008-05-05 09:21:35 51°13.761 2°55.703 135.9 3.9 136 -999
2008-05-05 09:21:40 51°13.757 2°55.71 132.8 3.8 132 -999
2008-05-05 09:21:45 51°13.754 2°55.716 130.4 3.8 131 -999
2008-05-05 09:21:50 51°13.75 2°55.722 128.7 3.7 129 -999
2008-05-05 09:21:55 51°13.747 2°55.729 127.6 3.7 127 9.9
2008-05-05 09:22:00 51°13.745 2°55.736 126.2 3.7 125 9.9
2008-05-05 09:22:05 51°13.742 2°55.742 124.7 3.7 124 -999
2008-05-05 09:22:10 51°13.739 2°55.749 124 3.7 124 -999
2008-05-05 09:22:15 51°13.736 2°55.756 124 3.7 124 11.8
2008-05-05 09:22:20 51°13.733 2°55.762 124.2 3.7 125 -999
2008-05-05 09:22:25 51°13.73 2°55.769 124.6 3.6 124 12.6
2008-05-05 09:22:30 51°13.727 2°55.775 124.7 3.6 125 -999
2008-05-05 09:22:35 51°13.725 2°55.782 124.8 3.6 123 -999
2008-05-05 09:22:40 51°13.722 2°55.789 124.8 3.6 124 -999
2008-05-05 09:22:45 51°13.719 2°55.795 124.3 3.6 122 12.5
2008-05-05 09:22:50 51°13.717 2°55.802 123.5 3.6 122 11.5
2008-05-05 09:22:55 51°13.714 2°55.809 122.5 3.6 120 10.1
2008-05-05 09:22:59 51°13.713 2°55.815 121.1 3.6 119 9
2008-05-05 09:23:05 51°13.71 2°55.823 119.9 3.6 119 8.4
2008-05-05 09:23:10 51°13.708 2°55.83 118.9 3.6 118 8
2008-05-05 09:23:15 51°13.706 2°55.837 118.3 3.6 116 7.7
2008-05-05 09:23:20 51°13.703 2°55.845 118 3.6 116 7.4
2008-05-05 09:23:24 51°13.702 2°55.85 117.5 3.6 116 7.2
2008-05-05 09:23:30 51°13.699 2°55.859 117.2 3.6 116 7
2008-05-05 09:23:35 51°13.697 2°55.866 116.8 3.6 116 -999
2008-05-05 09:23:40 51°13.695 2°55.873 116.8 3.6 116 6.9
2008-05-05 09:23:45 51°13.693 2°55.88 116.9 3.4 116 6.7
2008-05-05 09:23:50 51°13.691 2°55.886 117.2 3.3 116 6.7
2008-05-05 09:23:55 51°13.689 2°55.893 117.5 3.1 117 6.6
2008-05-05 09:24:00 51°13.687 2°55.899 118 3.1 116 6.6
2008-05-05 09:24:05 51°13.685 2°55.904 118.6 3 118 6.6
2008-05-05 09:24:10 51°13.683 2°55.91 119.4 2.9 119 6.7
2008-05-05 09:24:15 51°13.681 2°55.916 119.9 2.9 118 6.6
2008-05-05 09:24:20 51°13.679 2°55.921 120.4 2.8 119 6.7
2008-05-05 09:24:25 51°13.677 2°55.926 120.8 2.7 119 6.9
2008-05-05 09:24:30 51°13.676 2°55.931 120.8 2.4 119 7
2008-05-05 09:24:35 51°13.675 2°55.934 120.8 2.1 118 6.8
2008-05-05 09:24:40 51°13.673 2°55.938 121.3 1.8 120 6.9
2008-05-05 09:24:45 51°13.672 2°55.941 122.1 1.5 118 6.9
2008-05-05 09:24:50 51°13.672 2°55.943 122.4 1.2 122 6.9
2008-05-05 09:24:55 51°13.671 2°55.945 122.3 1 122 6.9
2008-05-05 09:24:59 51°13.671 2°55.946 122.4 0.9 124 6.7
2008-05-05 09:25:04 51°13.67 2°55.947 123.3 0.8 131 6.7
2008-05-05 09:25:10 51°13.669 2°55.949 124 0.7 126 6.7
2008-05-05 09:25:15 51°13.668 2°55.95 124.4 0.6 132 6.7
2008-05-05 09:25:20 51°13.668 2°55.951 124.1 0.6 127 6.8
2008-05-05 09:25:24 51°13.667 2°55.952 123.3 0.6 135 6.8
2008-05-05 09:25:30 51°13.667 2°55.953 122.1 0.5 131 6.7
2008-05-05 09:25:35 51°13.666 2°55.953 121 0.5 140 6.7
2008-05-05 09:25:40 51°13.666 2°55.954 119.7 0.5 134 6.8
2008-05-05 09:25:45 51°13.665 2°55.955 118.8 0.4 134 6.8
2008-05-05 09:25:50 51°13.666 2°55.955 118.1 0.1 52 6.7
2008-05-05 09:25:55 51°13.666 2°55.955 117.2 -999 179 6.8
2008-05-05 09:26:00 51°13.666 2°55.955 114.6 -999 12 7
2008-05-05 09:26:05 51°13.666 2°55.954 113.6 0.1 240 6.7
2008-05-05 09:26:10 51°13.666 2°55.955 113.6 0.1 14 6.9
2008-05-05 09:26:15 51°13.666 2°55.955 113.9 0.1 189 6.9
2008-05-05 09:26:20 51°13.666 2°55.955 114.4 0.1 45 6.8
2008-05-05 09:26:25 51°13.666 2°55.955 114.4 -999 89 6.9
2008-05-05 09:26:30 51°13.666 2°55.955 114.6 0.1 46 6.8
2008-05-05 09:26:35 51°13.666 2°55.955 114.7 0.1 53 6.7
2008-05-05 09:26:40 51°13.666 2°55.955 115.3 0.1 22 6.7
2008-05-05 09:26:45 51°13.666 2°55.955 115.9 0.1 8 6.7
2008-05-05 09:26:50 51°13.666 2°55.955 117.1 0.1 20 6.7
2008-05-05 09:26:55 51°13.666 2°55.955 118.5 0.1 5 5.2
2008-05-05 09:27:00 51°13.667 2°55.955 120.1 0.1 21 6.7
2008-05-05 09:27:05 51°13.667 2°55.955 121.6 0.1 20 6.7
2008-05-05 09:27:10 51°13.667 2°55.955 122.9 -999 10 6.7
2008-05-05 09:27:15 51°13.667 2°55.955 124.2 -999 354 6.9
2008-05-05 09:27:19 51°13.667 2°55.955 125.4 -999 303 6.7
2008-05-05 09:27:25 51°13.667 2°55.955 126.4 -999 257 6.8
2008-05-05 09:27:30 51°13.667 2°55.955 127.3 0.1 214 6.8
2008-05-05 09:27:35 51°13.667 2°55.955 127.7 -999 251 6.8
2008-05-05 09:27:40 51°13.667 2°55.955 127.9 0.1 258 6.8
2008-05-05 09:27:44 51°13.667 2°55.955 127.8 0.1 264 6.8
2008-05-05 09:27:50 51°13.667 2°55.954 127.6 0.1 228 6.8
2008-05-05 09:27:55 51°13.667 2°55.955 127.6 -999 88 6.9
2008-05-05 09:28:00 51°13.667 2°55.955 127.6 0.1 91 6.9
2008-05-05 09:28:05 51°13.667 2°55.955 127.4 0.1 70 6.7
2008-05-05 09:28:10 51°13.667 2°55.955 126.9 -999 53 6.7
2008-05-05 09:28:15 51°13.667 2°55.955 126.7 0.1 37 6.8
2008-05-05 09:28:20 51°13.667 2°55.955 126.7 -999 252 6.8
2008-05-05 09:28:25 51°13.667 2°55.955 126.7 -999 249 7
2008-05-05 09:28:30 51°13.667 2°55.955 127.1 0.1 232 6.8
2008-05-05 09:28:35 51°13.667 2°55.955 127.9 0.1 234 6.9
2008-05-05 09:28:40 51°13.667 2°55.955 128.4 0.1 236 6.8
2008-05-05 09:28:45 51°13.667 2°55.955 129 -999 281 6.8
2008-05-05 09:28:50 51°13.667 2°55.955 129.3 -999 255 6.9
2008-05-05 09:28:55 51°13.668 2°55.955 129.7 -999 49 6.9
2008-05-05 09:29:00 51°13.668 2°55.955 129.8 -999 42 6.6
2008-05-05 09:29:05 51°13.668 2°55.955 129.8 0.1 35 6.9
2008-05-05 09:29:10 51°13.668 2°55.955 129.6 -999 359 6.9
2008-05-05 09:29:15 51°13.668 2°55.955 129.4 -999 35 6.8
2008-05-05 09:29:20 51°13.668 2°55.955 129.4 -999 198 6.8
2008-05-05 09:29:25 51°13.668 2°55.955 129.2 -999 72 6.8
2008-05-05 09:29:30 51°13.668 2°55.956 129.2 -999 11 5.2
2008-05-05 09:29:35 51°13.668 2°55.956 129.1 -999 8 6.9
2008-05-05 09:29:40 51°13.668 2°55.955 129.1 -999 338 6.6
2008-05-05 09:29:45 51°13.668 2°55.956 129 -999 37 6.9
2008-05-05 09:29:50 51°13.668 2°55.956 129 -999 347 6.8
2008-05-05 09:29:55 51°13.668 2°55.956 128.9 -999 33 6.7
2008-05-05 09:30:00 51°13.668 2°55.955 128.7 -999 359 5.2
2008-05-05 09:30:05 51°13.668 2°55.955 128.5 -999 267 6.7
2008-05-05 09:30:10 51°13.668 2°55.955 128.4 -999 346 6.8
2008-05-05 09:30:15 51°13.668 2°55.955 128.1 -999 1 6.9
2008-05-05 09:30:20 51°13.668 2°55.955 127.8 -999 334 6.7
2008-05-05 09:30:25 51°13.668 2°55.955 127.6 -999 -999 6.7
2008-05-05 09:30:30 51°13.668 2°55.955 127.4 -999 334 6.9
2008-05-05 09:30:35 51°13.668 2°55.955 127.3 -999 230 6.7
2008-05-05 09:30:40 51°13.668 2°55.955 127.2 -999 2 6.8
2008-05-05 09:30:45 51°13.668 2°55.955 127 -999 4 6.7
2008-05-05 09:30:50 51°13.668 2°55.955 126.9 -999 358 6.8
2008-05-05 09:30:55 51°13.668 2°55.955 126.9 -999 17 6.7
2008-05-05 09:31:00 51°13.668 2°55.955 126.9 -999 13 6.7
2008-05-05 09:31:05 51°13.668 2°55.955 126.8 -999 56 6.9
2008-05-05 09:31:10 51°13.668 2°55.955 126.7 -999 219 6.7
2008-05-05 09:31:15 51°13.667 2°55.955 126.7 -999 243 6.9
2008-05-05 09:31:19 51°13.667 2°55.955 126.6 -999 214 6.8
2008-05-05 09:31:25 51°13.667 2°55.955 126.5 -999 23 6.7
2008-05-05 09:31:30 51°13.667 2°55.955 126.5 -999 17 6.9
2008-05-05 09:31:35 51°13.667 2°55.955 126.5 -999 15 6.9
2008-05-05 09:31:39 51°13.667 2°55.955 126.4 -999 190 5.2
2008-05-05 09:31:45 51°13.667 2°55.955 126.3 -999 44 6.8
2008-05-05 09:31:50 51°13.667 2°55.955 126.3 -999 321 6.8
2008-05-05 09:31:55 51°13.667 2°55.955 126.2 -999 17 6.8
2008-05-05 09:32:00 51°13.667 2°55.955 126.2 -999 207 6.9
2008-05-05 09:32:05 51°13.667 2°55.955 126.2 -999 63 5.2
2008-05-05 09:32:10 51°13.667 2°55.955 126.2 -999 207 6.8
2008-05-05 09:32:15 51°13.667 2°55.955 126.2 -999 53 6.8
2008-05-05 09:32:20 51°13.666 2°55.955 126.2 -999 145 6.7
2008-05-05 09:32:25 51°13.666 2°55.955 126.2 -999 132 6.9
2008-05-05 09:32:30 51°13.666 2°55.955 126.2 -999 212 6.7
2008-05-05 09:32:35 51°13.666 2°55.955 126.2 -999 204 6.8
2008-05-05 09:32:40 51°13.667 2°55.955 126.2 -999 190 6.8
2008-05-05 09:32:44 51°13.667 2°55.955 126.2 -999 66 6.9
2008-05-05 09:32:50 51°13.667 2°55.955 126.2 -999 224 6.7
2008-05-05 09:32:55 51°13.667 2°55.955 126.2 -999 81 6.9
2008-05-05 09:33:00 51°13.667 2°55.955 126.3 -999 203 6.8
2008-05-05 09:33:05 51°13.667 2°55.955 126.3 -999 58 6.7
2008-05-05 09:33:10 51°13.667 2°55.955 126.4 -999 72 6.9
2008-05-05 09:33:15 51°13.667 2°55.955 126.5 -999 59 -999
2008-05-05 09:33:20 51°13.667 2°55.955 126.5 -999 73 6.8
2008-05-05 09:33:25 51°13.667 2°55.955 126.6 -999 181 6.8
2008-05-05 09:33:30 51°13.667 2°55.955 126.7 -999 176 6.8
2008-05-05 09:33:35 51°13.667 2°55.955 126.7 -999 61 -999
2008-05-05 09:33:40 51°13.667 2°55.955 126.8 -999 59 6.7
2008-05-05 09:33:45 51°13.667 2°55.955 126.8 -999 196 6.9
2008-05-05 09:33:50 51°13.667 2°55.955 126.9 -999 15 6.7
2008-05-05 09:33:55 51°13.667 2°55.955 126.9 -999 23 6.9
2008-05-05 09:34:00 51°13.667 2°55.955 126.9 -999 219 6.8
2008-05-05 09:34:05 51°13.667 2°55.955 126.9 -999 39 6.8
2008-05-05 09:34:10 51°13.667 2°55.955 126.8 -999 350 6.8
2008-05-05 09:34:15 51°13.667 2°55.955 126.7 -999 44 7
2008-05-05 09:34:20 51°13.666 2°55.955 126.7 0.1 42 7
2008-05-05 09:34:25 51°13.666 2°55.955 126.7 -999 192 7
2008-05-05 09:34:30 51°13.666 2°55.955 126.7 -999 187 6.8
2008-05-05 09:34:35 51°13.666 2°55.955 126.7 -999 64 6.9
2008-05-05 09:34:40 51°13.667 2°55.956 126.7 -999 91 6.8
2008-05-05 09:34:45 51°13.666 2°55.955 126.9 -999 105 5.3
2008-05-05 09:34:50 51°13.666 2°55.955 126.9 -999 130 6.7
2008-05-05 09:34:55 51°13.666 2°55.955 127.1 -999 168 6.9
2008-05-05 09:35:00 51°13.666 2°55.955 127.2 -999 113 6.8
2008-05-05 09:35:05 51°13.666 2°55.955 127.5 -999 104 -999
2008-05-05 09:35:10 51°13.666 2°55.955 127.6 -999 171 7
2008-05-05 09:35:15 51°13.666 2°55.956 127.9 -999 139 -999
2008-05-05 09:35:20 51°13.666 2°55.956 128.1 -999 228 7
2008-05-05 09:35:25 51°13.666 2°55.956 128.2 -999 342 6.9
2008-05-05 09:35:30 51°13.666 2°55.956 128.2 -999 340 7
2008-05-05 09:35:35 51°13.666 2°55.956 128.2 -999 19 6.9
2008-05-05 09:35:40 51°13.666 2°55.956 128.1 -999 8 6.9
2008-05-05 09:35:45 51°13.666 2°55.956 128 -999 2 7.1
2008-05-05 09:35:50 51°13.667 2°55.956 127.8 -999 49 6.9
2008-05-05 09:35:55 51°13.667 2°55.956 127.6 -999 23 6.8
2008-05-05 09:36:00 51°13.667 2°55.956 127.4 -999 6 7
2008-05-05 09:36:05 51°13.667 2°55.956 127.2 -999 66 6.9
2008-05-05 09:36:10 51°13.667 2°55.956 127.1 -999 47 6.8
2008-05-05 09:36:15 51°13.666 2°55.956 127 -999 201 5.2
2008-05-05 09:36:20 51°13.666 2°55.955 127 -999 59 6.9
2008-05-05 09:36:25 51°13.666 2°55.955 127 -999 162 6.9
2008-05-05 09:36:30 51°13.666 2°55.955 127.1 -999 47 6.9
2008-05-05 09:36:35 51°13.666 2°55.955 127.3 -999 74 -999
2008-05-05 09:36:40 51°13.666 2°55.955 127.3 -999 104 7
2008-05-05 09:36:45 51°13.665 2°55.955 127.3 -999 59 -999
2008-05-05 09:36:50 51°13.665 2°55.955 127.3 -999 17 6.9
2008-05-05 09:36:55 51°13.665 2°55.955 127.3 -999 243 6.9
2008-05-05 09:37:00 51°13.666 2°55.955 127.3 -999 2 7
2008-05-05 09:37:05 51°13.666 2°55.955 127.3 -999 3 7
2008-05-05 09:37:10 51°13.666 2°55.955 127.2 -999 319 7
2008-05-05 09:37:15 51°13.666 2°55.955 127.2 -999 313 7
2008-05-05 09:37:20 51°13.665 2°55.955 127.1 -999 296 6.9
2008-05-05 09:37:25 51°13.665 2°55.955 127 -999 22 6.9
2008-05-05 09:37:30 51°13.665 2°55.955 126.9 -999 292 6.9
2008-05-05 09:37:35 51°13.665 2°55.955 126.9 -999 326 6.9
2008-05-05 09:37:40 51°13.665 2°55.955 126.7 -999 235 5.3
2008-05-05 09:37:45 51°13.665 2°55.954 126.6 -999 224 6.9
2008-05-05 09:37:50 51°13.665 2°55.954 126.6 -999 232 7
2008-05-05 09:37:55 51°13.665 2°55.954 126.5 -999 306 6.8
2008-05-05 09:38:00 51°13.665 2°55.954 126.3 -999 214 5.2
2008-05-05 09:38:05 51°13.665 2°55.954 126.3 -999 206 6.8
2008-05-05 09:38:10 51°13.665 2°55.954 126.3 -999 223 7
2008-05-05 09:38:15 51°13.665 2°55.954 126.3 -999 355 6.8
2008-05-05 09:38:20 51°13.665 2°55.954 126.4 0.1 191 6.9
2008-05-05 09:38:25 51°13.665 2°55.954 126.5 -999 125 5.3
2008-05-05 09:38:30 51°13.665 2°55.954 126.6 -999 174 6.9
2008-05-05 09:38:35 51°13.665 2°55.954 126.8 -999 121 6.9
2008-05-05 09:38:40 51°13.665 2°55.954 126.9 -999 163 7.1
2008-05-05 09:38:44 51°13.665 2°55.954 127.1 -999 112 7
2008-05-05 09:38:50 51°13.665 2°55.954 127.2 -999 63 7.1
2008-05-05 09:38:55 51°13.665 2°55.955 127.4 -999 88 7.1
2008-05-05 09:39:00 51°13.665 2°55.955 127.5 -999 105 7
2008-05-05 09:39:04 51°13.666 2°55.955 127.5 -999 37 6.8
2008-05-05 09:39:10 51°13.666 2°55.954 127.5 -999 247 7.1
2008-05-05 09:39:15 51°13.666 2°55.955 127.4 -999 340 7.1
2008-05-05 09:39:20 51°13.666 2°55.955 127.3 -999 353 5.3
2008-05-05 09:39:25 51°13.666 2°55.955 127 -999 342 6.9
2008-05-05 09:39:30 51°13.666 2°55.955 126.9 -999 343 -999
2008-05-05 09:39:35 51°13.666 2°55.954 126.6 -999 292 7
2008-05-05 09:39:40 51°13.666 2°55.955 126.3 -999 3 6.9
2008-05-05 09:39:45 51°13.666 2°55.954 126.2 -999 210 6.8
2008-05-05 09:39:50 51°13.667 2°55.954 126.1 -999 52 7
2008-05-05 09:39:55 51°13.667 2°55.955 126 -999 97 6.9
2008-05-05 09:40:00 51°13.667 2°55.955 126 -999 39 7
2008-05-05 09:40:05 51°13.667 2°55.954 126 -999 188 7.1
2008-05-05 09:40:10 51°13.667 2°55.955 126 -999 166 7.1
2008-05-05 09:40:15 51°13.667 2°55.955 126.1 -999 72 7.1
2008-05-05 09:40:19 51°13.667 2°55.955 126.2 -999 115 -999
2008-05-05 09:40:25 51°13.667 2°55.955 126.4 -999 134 6.9
2008-05-05 09:40:30 51°13.667 2°55.955 126.7 -999 176 7
2008-05-05 09:40:35 51°13.667 2°55.955 126.9 -999 173 7
2008-05-05 09:40:40 51°13.667 2°55.955 127 -999 188 7.1
2008-05-05 09:40:45 51°13.667 2°55.955 127.2 -999 213 5.3
2008-05-05 09:40:50 51°13.667 2°55.955 127.2 -999 243 7.1
2008-05-05 09:40:55 51°13.667 2°55.955 127.3 -999 320 7.2
2008-05-05 09:41:00 51°13.667 2°55.955 127.3 -999 17 7.1
2008-05-05 09:41:04 51°13.667 2°55.955 127.2 -999 66 7.1
2008-05-05 09:41:10 51°13.667 2°55.955 127.2 -999 195 5.3
2008-05-05 09:41:15 51°13.667 2°55.955 127 -999 337 7
2008-05-05 09:41:20 51°13.667 2°55.955 127 -999 240 7.1
2008-05-05 09:41:25 51°13.667 2°55.955 126.9 -999 124 6.9
2008-05-05 09:41:30 51°13.667 2°55.955 126.9 -999 291 7.2
2008-05-05 09:41:35 51°13.667 2°55.955 126.9 -999 153 7
2008-05-05 09:41:40 51°13.667 2°55.955 126.9 -999 29 5.3
2008-05-05 09:41:45 51°13.667 2°55.955 126.9 -999 183 7.1
2008-05-05 09:41:50 51°13.666 2°55.955 126.9 -999 193 7.2
2008-05-05 09:41:55 51°13.666 2°55.955 127 -999 118 7.1
2008-05-05 09:42:00 51°13.666 2°55.955 127.1 -999 97 7.1
2008-05-05 09:42:05 51°13.666 2°55.955 127.2 -999 145 5.3
2008-05-05 09:42:10 51°13.666 2°55.955 127.2 -999 86 7
2008-05-05 09:42:15 51°13.666 2°55.955 127.2 -999 344 5.4
2008-05-05 09:42:20 51°13.666 2°55.955 127.3 -999 247 7.1
2008-05-05 09:42:25 51°13.667 2°55.955 127.3 -999 23 7.2
2008-05-05 09:42:30 51°13.667 2°55.955 127.3 -999 65 7.2
2008-05-05 09:42:35 51°13.667 2°55.955 127 -999 18 7
2008-05-05 09:42:39 51°13.667 2°55.955 126.9 -999 265 6.9
2008-05-05 09:42:45 51°13.667 2°55.955 126.7 -999 342 7.1
2008-05-05 09:42:50 51°13.667 2°55.955 126.4 -999 336 5.3
2008-05-05 09:42:55 51°13.667 2°55.955 126.3 -999 274 7
2008-05-05 09:43:00 51°13.667 2°55.955 126.2 -999 306 7
2008-05-05 09:43:05 51°13.667 2°55.955 126.1 -999 223 6.9
2008-05-05 09:43:10 51°13.667 2°55.955 126 -999 34 7.1
2008-05-05 09:43:15 51°13.667 2°55.955 125.8 -999 276 5.3
2008-05-05 09:43:20 51°13.667 2°55.955 125.7 -999 281 7.1
2008-05-05 09:43:24 51°13.667 2°55.955 125.7 -999 85 7.2
2008-05-05 09:43:30 51°13.667 2°55.955 125.6 -999 93 7.1
2008-05-05 09:43:35 51°13.667 2°55.955 125.6 -999 156 7
2008-05-05 09:43:40 51°13.667 2°55.955 125.6 -999 215 5.3
2008-05-05 09:43:45 51°13.667 2°55.955 125.6 -999 196 6.9
2008-05-05 09:43:50 51°13.667 2°55.955 125.6 0.1 195 7
2008-05-05 09:43:55 51°13.666 2°55.955 125.8 0.1 183 7.1
2008-05-05 09:44:00 51°13.666 2°55.955 126 0.1 179 7
2008-05-05 09:44:05 51°13.666 2°55.955 126.2 -999 175 7.1
2008-05-05 09:44:10 51°13.666 2°55.955 126.5 0.1 182 7.3
2008-05-05 09:44:15 51°13.666 2°55.955 126.9 -999 104 7.1
2008-05-05 09:44:20 51°13.666 2°55.955 127 -999 166 7.1
2008-05-05 09:44:25 51°13.666 2°55.955 127.2 -999 90 5.3
2008-05-05 09:44:30 51°13.666 2°55.954 127.5 -999 106 7.1
2008-05-05 09:44:35 51°13.666 2°55.954 127.6 -999 166 7.2
2008-05-05 09:44:40 51°13.666 2°55.954 127.7 -999 133 7.3
2008-05-05 09:44:45 51°13.666 2°55.954 127.8 -999 207 7.2
2008-05-05 09:44:50 51°13.666 2°55.954 127.8 -999 53 5.4
2008-05-05 09:44:55 51°13.666 2°55.954 127.8 -999 262 7.1
2008-05-05 09:45:00 51°13.666 2°55.954 127.8 -999 205 -999
2008-05-05 09:45:05 51°13.666 2°55.954 127.8 -999 352 7.1
2008-05-05 09:45:10 51°13.666 2°55.954 127.8 0.1 343 7.2
2008-05-05 09:45:15 51°13.666 2°55.954 127.6 0.1 3 7.3
2008-05-05 09:45:19 51°13.666 2°55.954 127.4 -999 2 7.2
2008-05-05 09:45:25 51°13.666 2°55.954 127.2 -999 32 7.2
2008-05-05 09:45:30 51°13.666 2°55.954 126.8 -999 346 7
2008-05-05 09:45:35 51°13.666 2°55.954 126.5 0.1 352 7.3
2008-05-05 09:45:40 51°13.667 2°55.954 126.2 -999 359 7
2008-05-05 09:45:45 51°13.667 2°55.954 126 -999 333 7.3
2008-05-05 09:45:50 51°13.666 2°55.954 125.7 -999 244 7.1
2008-05-05 09:45:55 51°13.666 2°55.954 125.5 -999 208 5.3
2008-05-05 09:46:00 51°13.666 2°55.954 125.5 -999 81 7.3
2008-05-05 09:46:05 51°13.666 2°55.954 125.5 -999 73 7.3
2008-05-05 09:46:10 51°13.666 2°55.954 125.5 -999 43 7.3
2008-05-05 09:46:15 51°13.666 2°55.954 125.5 -999 207 7
2008-05-05 09:46:20 51°13.666 2°55.954 125.5 -999 43 7
2008-05-05 09:46:25 51°13.667 2°55.954 125.5 -999 56 7
2008-05-05 09:46:30 51°13.667 2°55.954 125.5 -999 356 -999
2008-05-05 09:46:35 51°13.666 2°55.954 125.5 -999 -999 7.1
2008-05-05 09:46:40 51°13.666 2°55.954 125.5 -999 73 7
2008-05-05 09:46:45 51°13.667 2°55.954 125.5 -999 62 7.3
2008-05-05 09:46:50 51°13.666 2°55.954 125.5 -999 54 7.2
2008-05-05 09:46:55 51°13.666 2°55.954 125.5 -999 85 5.4
2008-05-05 09:47:00 51°13.666 2°55.954 125.6 -999 14 7.2
2008-05-05 09:47:05 51°13.666 2°55.954 125.8 -999 320 7.2
2008-05-05 09:47:10 51°13.666 2°55.954 125.9 -999 47 7.2
2008-05-05 09:47:15 51°13.666 2°55.954 126.1 -999 205 7.3
2008-05-05 09:47:20 51°13.666 2°55.954 126.2 -999 49 7.3
2008-05-05 09:47:25 51°13.666 2°55.954 126.2 -999 187 7.2
2008-05-05 09:47:30 51°13.666 2°55.954 126.3 -999 266 7.3
2008-05-05 09:47:35 51°13.666 2°55.954 126.2 -999 164 7.3
2008-05-05 09:47:40 51°13.666 2°55.954 126 -999 171 7.3
2008-05-05 09:47:45 51°13.666 2°55.954 125.9 -999 18 7.1
2008-05-05 09:47:50 51°13.666 2°55.954 125.8 -999 56 7.1
2008-05-05 09:47:55 51°13.666 2°55.954 125.8 -999 58 7.3
2008-05-05 09:48:00 51°13.666 2°55.954 125.8 -999 301 5.4
2008-05-05 09:48:04 51°13.666 2°55.954 125.8 -999 263 7.2
2008-05-05 09:48:10 51°13.666 2°55.954 125.8 -999 112 7.1
2008-05-05 09:48:15 51°13.666 2°55.954 126 -999 80 7.1
2008-05-05 09:48:20 51°13.666 2°55.954 126.1 -999 63 7
2008-05-05 09:48:25 51°13.666 2°55.954 126.2 -999 146 5.4
2008-05-05 09:48:30 51°13.666 2°55.954 126.2 -999 121 7.2
2008-05-05 09:48:35 51°13.666 2°55.954 126.2 -999 231 7.3
2008-05-05 09:48:40 51°13.666 2°55.954 126.2 -999 209 7.3
2008-05-05 09:48:45 51°13.666 2°55.954 126.2 -999 87 7.3
2008-05-05 09:48:50 51°13.666 2°55.954 126.2 -999 219 5.4
2008-05-05 09:48:55 51°13.666 2°55.953 126.1 -999 190 7.3
2008-05-05 09:49:00 51°13.666 2°55.953 126.1 -999 218 7.2
2008-05-05 09:49:05 51°13.666 2°55.953 126.1 -999 333 7.3
2008-05-05 09:49:10 51°13.666 2°55.953 126.1 -999 227 7.2
2008-05-05 09:49:15 51°13.666 2°55.953 126.2 -999 190 7.2
2008-05-05 09:49:20 51°13.666 2°55.953 126.3 -999 236 7.2
2008-05-05 09:49:25 51°13.666 2°55.953 126.4 -999 348 7.3
2008-05-05 09:49:30 51°13.666 2°55.953 126.4 -999 202 7.3
2008-05-05 09:49:35 51°13.666 2°55.953 126.4 -999 132 7.3
2008-05-05 09:49:40 51°13.666 2°55.953 126.4 -999 188 7.3
2008-05-05 09:49:45 51°13.666 2°55.953 126.4 -999 181 7.2
2008-05-05 09:49:50 51°13.666 2°55.953 126.4 -999 192 7.3
2008-05-05 09:49:55 51°13.666 2°55.953 126.4 -999 103 7.4
2008-05-05 09:50:00 51°13.666 2°55.953 126.4 -999 174 -999
2008-05-05 09:50:05 51°13.666 2°55.953 126.4 -999 100 7.3
2008-05-05 09:50:10 51°13.666 2°55.953 126.4 -999 206 7.3
2008-05-05 09:50:15 51°13.666 2°55.953 126.4 -999 46 7.3
2008-05-05 09:50:20 51°13.666 2°55.954 126.5 -999 32 7.3
2008-05-05 09:50:25 51°13.666 2°55.954 126.5 -999 47 7.4
2008-05-05 09:50:30 51°13.666 2°55.954 126.5 -999 281 7.3
2008-05-05 09:50:35 51°13.666 2°55.954 126.5 -999 304 7.3
2008-05-05 09:50:40 51°13.666 2°55.954 126.3 -999 247 7.3
2008-05-05 09:50:45 51°13.666 2°55.954 126.2 -999 278 7.4
2008-05-05 09:50:50 51°13.666 2°55.954 126.2 -999 334 5.4
2008-05-05 09:50:55 51°13.666 2°55.954 126.2 -999 10 7.2
2008-05-05 09:51:00 51°13.666 2°55.953 126.1 -999 332 7.2
2008-05-05 09:51:05 51°13.666 2°55.953 126 -999 357 -999
2008-05-05 09:51:10 51°13.666 2°55.953 125.8 -999 333 7.3
2008-05-05 09:51:15 51°13.666 2°55.954 125.6 -999 33 7.3
2008-05-05 09:51:20 51°13.666 2°55.954 125.5 -999 137 7.4
2008-05-05 09:51:25 51°13.666 2°55.953 125.5 -999 344 5.4
2008-05-05 09:51:30 51°13.666 2°55.954 125.5 -999 172 7.4
2008-05-05 09:51:35 51°13.666 2°55.954 125.5 -999 81 7.4
2008-05-05 09:51:40 51°13.666 2°55.954 125.5 -999 111 7.3
2008-05-05 09:51:45 51°13.666 2°55.954 125.5 -999 44 7.4
2008-05-05 09:51:50 51°13.666 2°55.954 125.6 -999 129 7.4
2008-05-05 09:51:55 51°13.666 2°55.954 125.7 -999 82 -999
2008-05-05 09:52:00 51°13.665 2°55.954 125.8 -999 123 7.4
2008-05-05 09:52:05 51°13.665 2°55.954 125.8 -999 175 7.4
2008-05-05 09:52:10 51°13.665 2°55.954 125.9 -999 35 7.4
2008-05-05 09:52:15 51°13.665 2°55.954 125.9 -999 67 7.4
2008-05-05 09:52:20 51°13.665 2°55.954 125.9 -999 251 5.5
2008-05-05 09:52:25 51°13.665 2°55.954 125.9 -999 180 7.4
2008-05-05 09:52:30 51°13.665 2°55.954 125.9 -999 171 5.5
2008-05-05 09:52:35 51°13.665 2°55.954 125.9 -999 259 7.4
2008-05-05 09:52:40 51°13.665 2°55.954 125.9 -999 22 7.4
2008-05-05 09:52:45 51°13.665 2°55.954 125.8 -999 7 7.2
2008-05-05 09:52:50 51°13.665 2°55.954 125.8 -999 347 7.4
2008-05-05 09:52:55 51°13.665 2°55.954 125.7 -999 90 7.4
2008-05-05 09:53:00 51°13.665 2°55.954 125.7 -999 199 7.5
2008-05-05 09:53:05 51°13.665 2°55.954 125.7 -999 103 7.5
2008-05-05 09:53:10 51°13.665 2°55.954 125.7 -999 136 -999
2008-05-05 09:53:15 51°13.665 2°55.954 125.8 -999 161 7.5
2008-05-05 09:53:20 51°13.665 2°55.954 125.8 -999 87 7.3
2008-05-05 09:53:25 51°13.665 2°55.954 125.9 -999 119 7.3
2008-05-05 09:53:30 51°13.665 2°55.954 126 -999 117 7.2
2008-05-05 09:53:35 51°13.665 2°55.954 126.1 -999 79 7.2
2008-05-05 09:53:40 51°13.665 2°55.954 126.1 -999 142 7.4
2008-05-05 09:53:45 51°13.665 2°55.954 126.1 -999 251 7.5
2008-05-05 09:53:50 51°13.665 2°55.954 126.1 -999 313 7.4
2008-05-05 09:53:55 51°13.665 2°55.954 126.1 -999 316 7.5
2008-05-05 09:54:00 51°13.665 2°55.954 126 -999 41 5.5
2008-05-05 09:54:05 51°13.665 2°55.954 125.8 -999 268 7.5
2008-05-05 09:54:10 51°13.665 2°55.954 125.7 -999 224 5.5
2008-05-05 09:54:15 51°13.665 2°55.954 125.6 -999 227 7.4
2008-05-05 09:54:20 51°13.665 2°55.954 125.5 -999 309 7.4
2008-05-05 09:54:25 51°13.665 2°55.954 125.5 -999 281 7.5
2008-05-05 09:54:30 51°13.665 2°55.954 125.4 -999 197 -999
2008-05-05 09:54:35 51°13.665 2°55.954 125.4 -999 202 7.4
2008-05-05 09:54:40 51°13.665 2°55.954 125.4 -999 22 7.5
2008-05-05 09:54:44 51°13.665 2°55.954 125.4 -999 64 5.5
2008-05-05 09:54:50 51°13.665 2°55.954 125.4 -999 116 7.5
2008-05-05 09:54:55 51°13.665 2°55.954 125.4 -999 189 7.5
2008-05-05 09:55:00 51°13.665 2°55.954 125.4 -999 73 -999
2008-05-05 09:55:05 51°13.665 2°55.954 125.6 -999 171 7.4
2008-05-05 09:55:10 51°13.665 2°55.954 125.7 -999 117 7.5
2008-05-05 09:55:15 51°13.665 2°55.954 125.8 -999 34 7.4
2008-05-05 09:55:20 51°13.665 2°55.954 125.8 -999 156 7.5
2008-05-05 09:55:25 51°13.665 2°55.954 125.8 -999 141 7.4
2008-05-05 09:55:30 51°13.665 2°55.954 125.8 -999 244 7.5
2008-05-05 09:55:35 51°13.665 2°55.954 125.9 -999 328 5.5
2008-05-05 09:55:40 51°13.665 2°55.954 125.9 -999 138 7.5
2008-05-05 09:55:45 51°13.665 2°55.954 125.9 -999 152 7.4
2008-05-05 09:55:50 51°13.665 2°55.954 125.9 -999 247 7.4
2008-05-05 09:55:55 51°13.665 2°55.954 125.9 -999 206 -999
2008-05-05 09:56:00 51°13.665 2°55.954 126.1 -999 202 7.3
2008-05-05 09:56:05 51°13.665 2°55.954 126.2 -999 174 7.5
2008-05-05 09:56:10 51°13.665 2°55.954 126.2 -999 102 -999
2008-05-05 09:56:15 51°13.665 2°55.954 126.2 -999 92 7.5
2008-05-05 09:56:20 51°13.665 2°55.954 126.3 -999 121 7.5
2008-05-05 09:56:25 51°13.665 2°55.954 126.3 -999 198 7.5
2008-05-05 09:56:30 51°13.665 2°55.954 126.3 -999 239 7.4
2008-05-05 09:56:35 51°13.665 2°55.954 126.3 -999 65 7.5
2008-05-05 09:56:40 51°13.665 2°55.954 126.4 -999 103 7.6
2008-05-05 09:56:45 51°13.665 2°55.954 126.6 -999 83 -999
2008-05-05 09:56:50 51°13.665 2°55.955 126.7 -999 38 7.5
2008-05-05 09:56:55 51°13.665 2°55.955 126.7 -999 28 7.6
2008-05-05 09:57:00 51°13.665 2°55.955 126.7 -999 213 7.5
2008-05-05 09:57:04 51°13.665 2°55.955 126.6 -999 31 7.5
2008-05-05 09:57:10 51°13.665 2°55.955 126.6 -999 193 7.5
2008-05-05 09:57:15 51°13.665 2°55.955 126.5 -999 31 7.6
2008-05-05 09:57:20 51°13.665 2°55.955 126.5 -999 218 7.4
2008-05-05 09:57:25 51°13.665 2°55.955 126.3 -999 123 7.5
2008-05-05 09:57:30 51°13.665 2°55.955 126.3 -999 236 7.6
2008-05-05 09:57:35 51°13.665 2°55.955 126.3 -999 274 7.5
2008-05-05 09:57:40 51°13.665 2°55.954 126.3 -999 215 7.4
2008-05-05 09:57:45 51°13.665 2°55.955 126.3 -999 61 7.6
2008-05-05 09:57:50 51°13.665 2°55.954 126.3 -999 236 7.4
2008-05-05 09:57:55 51°13.665 2°55.954 126.3 -999 235 7.6
2008-05-05 09:58:00 51°13.665 2°55.954 126.3 -999 255 7.6
2008-05-05 09:58:05 51°13.665 2°55.954 126.3 -999 85 7.6
2008-05-05 09:58:10 51°13.665 2°55.954 126.3 -999 339 7.6
2008-05-05 09:58:15 51°13.665 2°55.954 126.3 -999 187 -999
2008-05-05 09:58:20 51°13.665 2°55.954 126.3 -999 146 7.6
2008-05-05 09:58:25 51°13.665 2°55.954 126.3 -999 34 7.6
2008-05-05 09:58:30 51°13.665 2°55.954 126.3 -999 82 7.7
2008-05-05 09:58:35 51°13.665 2°55.954 126.3 -999 67 7.7
2008-05-05 09:58:40 51°13.665 2°55.954 126.3 -999 130 7.7
2008-05-05 09:58:45 51°13.665 2°55.954 126.4 -999 158 7.5
2008-05-05 09:58:50 51°13.665 2°55.954 126.4 -999 200 7.6
2008-05-05 09:58:55 51°13.665 2°55.954 126.4 -999 119 7.6
2008-05-05 09:59:00 51°13.665 2°55.954 126.5 -999 194 7.7
2008-05-05 09:59:04 51°13.665 2°55.954 126.6 -999 7 7.7
2008-05-05 09:59:10 51°13.665 2°55.954 126.7 -999 264 7.6
2008-05-05 09:59:15 51°13.665 2°55.954 126.8 -999 128 7.7
2008-05-05 09:59:20 51°13.665 2°55.954 126.8 -999 192 7.6
2008-05-05 09:59:25 51°13.665 2°55.954 126.8 -999 357 7.5
2008-05-05 09:59:30 51°13.665 2°55.954 126.8 -999 257 7.7
2008-05-05 09:59:35 51°13.666 2°55.954 126.8 -999 49 7.6
2008-05-05 09:59:40 51°13.666 2°55.954 126.8 -999 288 7.7
2008-05-05 09:59:45 51°13.666 2°55.954 126.7 -999 313 7.7
2008-05-05 09:59:50 51°13.666 2°55.954 126.6 -999 318 7.5
2008-05-05 09:59:55 51°13.666 2°55.954 126.5 -999 242 7.7
2008-05-05 10:00:00 51°13.666 2°55.954 126.3 -999 291 7.6
2008-05-05 10:00:05 51°13.666 2°55.954 126.2 -999 250 7.5
2008-05-05 10:00:10 51°13.666 2°55.954 126.2 -999 347 7.6
2008-05-05 10:00:15 51°13.666 2°55.954 126 -999 347 7.5
2008-05-05 10:00:20 51°13.666 2°55.954 125.9 -999 33 7.7
2008-05-05 10:00:25 51°13.665 2°55.954 125.8 -999 264 7.7
2008-05-05 10:00:30 51°13.665 2°55.954 125.7 -999 326 -999
2008-05-05 10:00:35 51°13.665 2°55.954 125.6 -999 331 7.7
2008-05-05 10:00:40 51°13.665 2°55.954 125.5 -999 33 7.7
2008-05-05 10:00:45 51°13.665 2°55.954 125.5 -999 45 7.7
2008-05-05 10:00:50 51°13.665 2°55.954 125.4 -999 103 7.6
2008-05-05 10:00:55 51°13.665 2°55.954 125.4 -999 185 7.7
2008-05-05 10:01:00 51°13.665 2°55.954 125.4 -999 153 7.6
2008-05-05 10:01:05 51°13.665 2°55.954 125.3 -999 189 7.6
2008-05-05 10:01:10 51°13.665 2°55.954 125.3 -999 253 7.6
2008-05-05 10:01:15 51°13.665 2°55.954 125.3 -999 205 7.7
2008-05-05 10:01:20 51°13.665 2°55.954 125.4 -999 87 7.6
2008-05-05 10:01:25 51°13.665 2°55.954 125.5 -999 179 7.7
2008-05-05 10:01:30 51°13.665 2°55.954 125.5 -999 116 7.5
2008-05-05 10:01:35 51°13.665 2°55.954 125.6 -999 112 7.7
2008-05-05 10:01:40 51°13.665 2°55.954 125.8 -999 79 7.7
2008-05-05 10:01:44 51°13.665 2°55.954 125.8 -999 141 7.7
2008-05-05 10:01:50 51°13.665 2°55.954 126 -999 68 7.8
2008-05-05 10:01:55 51°13.665 2°55.954 126.1 -999 335 -999
2008-05-05 10:02:00 51°13.665 2°55.954 126.2 -999 280 7.6
2008-05-05 10:02:05 51°13.665 2°55.954 126.2 -999 213 7.8
2008-05-05 10:02:10 51°13.665 2°55.954 126.2 -999 288 7.8
2008-05-05 10:02:15 51°13.665 2°55.954 126.2 -999 178 7.8
2008-05-05 10:02:20 51°13.665 2°55.954 126.2 -999 122 7.7
2008-05-05 10:02:25 51°13.665 2°55.954 126.2 -999 69 7.7
2008-05-05 10:02:30 51°13.665 2°55.954 126.2 -999 167 7.6
2008-05-05 10:02:35 51°13.665 2°55.955 126.1 -999 117 7.8
2008-05-05 10:02:40 51°13.665 2°55.955 126 -999 186 7.6
2008-05-05 10:02:45 51°13.665 2°55.954 126 -999 205 7.7
2008-05-05 10:02:50 51°13.665 2°55.954 126.2 -999 284 7.7
2008-05-05 10:02:55 51°13.665 2°55.954 126.4 -999 74 7.7
2008-05-05 10:03:00 51°13.665 2°55.954 126.5 -999 177 7.8
2008-05-05 10:03:05 51°13.665 2°55.955 126.6 -999 126 7.8
2008-05-05 10:03:10 51°13.665 2°55.955 126.6 -999 182 7.7
2008-05-05 10:03:15 51°13.665 2°55.955 126.6 -999 333 7.7
2008-05-05 10:03:20 51°13.665 2°55.955 126.6 -999 343 7.8
2008-05-05 10:03:25 51°13.665 2°55.955 126.8 -999 84 7.9
2008-05-05 10:03:30 51°13.665 2°55.955 126.9 -999 108 7.9
2008-05-05 10:03:35 51°13.665 2°55.955 127 -999 116 7.8
2008-05-05 10:03:40 51°13.665 2°55.955 127 -999 154 7.8
2008-05-05 10:03:44 51°13.665 2°55.955 127 -999 91 7.8
2008-05-05 10:03:50 51°13.665 2°55.955 127 -999 317 7.8
2008-05-05 10:03:55 51°13.665 2°55.955 127 -999 37 7.9
2008-05-05 10:04:00 51°13.665 2°55.955 127 -999 50 7.8
2008-05-05 10:04:04 51°13.665 2°55.955 127 -999 122 7.9
2008-05-05 10:04:10 51°13.665 2°55.955 127 -999 129 7.7
2008-05-05 10:04:15 51°13.665 2°55.955 127 -999 78 7.9
2008-05-05 10:04:20 51°13.665 2°55.955 127 -999 343 7.8
2008-05-05 10:04:25 51°13.665 2°55.955 127 -999 307 7.9
2008-05-05 10:04:30 51°13.665 2°55.955 127 -999 48 7.8
2008-05-05 10:04:35 51°13.665 2°55.955 126.9 -999 200 7.7
2008-05-05 10:04:40 51°13.665 2°55.955 126.8 -999 1 7.7
2008-05-05 10:04:45 51°13.665 2°55.955 126.7 -999 323 7.7
2008-05-05 10:04:50 51°13.665 2°55.955 126.6 -999 35 7.8
2008-05-05 10:04:55 51°13.665 2°55.954 126.3 -999 291 7.9
2008-05-05 10:05:00 51°13.665 2°55.954 126.3 -999 308 7.9
2008-05-05 10:05:05 51°13.665 2°55.954 126.2 -999 228 7.8
2008-05-05 10:05:10 51°13.665 2°55.954 126.1 -999 263 7.8
2008-05-05 10:05:15 51°13.665 2°55.954 125.9 -999 240 7.7
2008-05-05 10:05:20 51°13.665 2°55.954 125.9 0.1 229 7.8
2008-05-05 10:05:25 51°13.665 2°55.954 125.9 0.1 208 7.9
2008-05-05 10:05:30 51°13.665 2°55.954 125.9 0.1 185 7.9
2008-05-05 10:05:35 51°13.665 2°55.954 126.1 0.1 207 7.9
2008-05-05 10:05:40 51°13.665 2°55.954 126.2 -999 189 8
2008-05-05 10:05:45 51°13.665 2°55.954 126.4 -999 134 7.9
2008-05-05 10:05:50 51°13.665 2°55.954 126.7 -999 182 7.9
2008-05-05 10:05:55 51°13.665 2°55.954 126.9 -999 113 7.8
2008-05-05 10:06:00 51°13.665 2°55.954 127.2 -999 97 7.8
2008-05-05 10:06:05 51°13.665 2°55.954 127.4 -999 79 7.8
2008-05-05 10:06:10 51°13.665 2°55.954 127.6 0.1 67 7.9
2008-05-05 10:06:15 51°13.665 2°55.954 127.8 -999 58 7.9
2008-05-05 10:06:20 51°13.665 2°55.954 127.8 -999 20 7.9
2008-05-05 10:06:25 51°13.665 2°55.954 127.9 0.1 25 7.9
2008-05-05 10:06:30 51°13.665 2°55.954 127.8 0.1 31 7.8
2008-05-05 10:06:35 51°13.665 2°55.954 127.6 0.1 25 7.8
2008-05-05 10:06:40 51°13.665 2°55.954 127.4 -999 6 7.9
2008-05-05 10:06:45 51°13.665 2°55.954 127 -999 350 7.9
2008-05-05 10:06:50 51°13.665 2°55.954 126.7 -999 237 7.8
2008-05-05 10:06:55 51°13.665 2°55.954 126.5 -999 249 7.8
2008-05-05 10:07:00 51°13.665 2°55.954 126.5 -999 305 7.9
2008-05-05 10:07:05 51°13.665 2°55.954 126.6 -999 252 7.7
2008-05-05 10:07:10 51°13.665 2°55.954 126.7 -999 79 7.9
2008-05-05 10:07:15 51°13.665 2°55.954 126.7 0.1 54 7.8
2008-05-05 10:07:20 51°13.665 2°55.954 126.7 -999 33 7.9
2008-05-05 10:07:25 51°13.665 2°55.954 126.7 -999 67 7.9
2008-05-05 10:07:30 51°13.665 2°55.954 126.7 -999 100 7.9
2008-05-05 10:07:35 51°13.665 2°55.955 126.7 -999 201 7.9
2008-05-05 10:07:40 51°13.665 2°55.954 126.7 -999 242 8
2008-05-05 10:07:45 51°13.665 2°55.954 126.7 -999 173 8
2008-05-05 10:07:50 51°13.665 2°55.954 126.7 -999 294 8
2008-05-05 10:07:55 51°13.665 2°55.954 126.7 -999 17 8
2008-05-05 10:08:00 51°13.665 2°55.954 126.7 -999 299 7.8
2008-05-05 10:08:05 51°13.665 2°55.954 126.7 -999 272 8
2008-05-05 10:08:10 51°13.665 2°55.955 126.7 -999 256 7.9
2008-05-05 10:08:15 51°13.665 2°55.955 126.7 -999 9 7.9
2008-05-05 10:08:20 51°13.665 2°55.955 126.7 -999 63 7.9
2008-05-05 10:08:25 51°13.665 2°55.955 126.7 -999 50 7.9
2008-05-05 10:08:30 51°13.665 2°55.954 126.7 -999 200 7.9
2008-05-05 10:08:35 51°13.665 2°55.954 126.6 -999 213 8
2008-05-05 10:08:40 51°13.665 2°55.954 126.5 -999 188 8
2008-05-05 10:08:44 51°13.665 2°55.954 126.3 -999 232 8
2008-05-05 10:08:50 51°13.665 2°55.954 126.2 -999 256 -999
2008-05-05 10:08:55 51°13.665 2°55.954 126.2 -999 245 8.1
2008-05-05 10:09:00 51°13.665 2°55.954 126.2 -999 256 8
2008-05-05 10:09:05 51°13.665 2°55.954 126.2 0.1 230 8
2008-05-05 10:09:10 51°13.665 2°55.954 126.2 -999 78 7.8
2008-05-05 10:09:15 51°13.665 2°55.954 126.2 -999 270 8
2008-05-05 10:09:20 51°13.665 2°55.953 126.1 -999 294 8
2008-05-05 10:09:25 51°13.665 2°55.953 126.1 -999 298 8
2008-05-05 10:09:30 51°13.665 2°55.953 125.9 -999 210 7.8
2008-05-05 10:09:35 51°13.665 2°55.953 125.9 -999 53 7.9
2008-05-05 10:09:40 51°13.665 2°55.953 125.8 -999 75 8.1
2008-05-05 10:09:45 51°13.665 2°55.953 125.7 -999 37 7.9
2008-05-05 10:09:50 51°13.665 2°55.953 125.7 -999 217 8.1
2008-05-05 10:09:55 51°13.665 2°55.953 125.7 -999 175 7.9
2008-05-05 10:10:00 51°13.665 2°55.953 125.8 -999 144 -999
2008-05-05 10:10:05 51°13.665 2°55.953 125.9 -999 124 7.8
2008-05-05 10:10:10 51°13.665 2°55.953 126.1 -999 106 7.9
2008-05-05 10:10:15 51°13.665 2°55.953 126.3 -999 167 7.8
2008-05-05 10:10:20 51°13.665 2°55.954 126.4 -999 81 7.8
2008-05-05 10:10:25 51°13.665 2°55.954 126.5 -999 135 7.9
2008-05-05 10:10:30 51°13.665 2°55.954 126.6 -999 85 7.9
2008-05-05 10:10:35 51°13.665 2°55.954 126.7 -999 220 7.9
2008-05-05 10:10:40 51°13.665 2°55.954 126.9 -999 167 8
2008-05-05 10:10:45 51°13.665 2°55.954 127 -999 226 8
2008-05-05 10:10:50 51°13.665 2°55.954 127 -999 357 8
2008-05-05 10:10:55 51°13.665 2°55.954 127 -999 78 8.1
2008-05-05 10:11:00 51°13.665 2°55.954 127 -999 71 8.1
2008-05-05 10:11:05 51°13.665 2°55.954 127 -999 52 8
2008-05-05 10:11:10 51°13.665 2°55.954 127 -999 59 7.9
2008-05-05 10:11:15 51°13.665 2°55.954 127 -999 78 7.9
2008-05-05 10:11:20 51°13.665 2°55.954 127 -999 68 8.1
2008-05-05 10:11:25 51°13.665 2°55.954 127 -999 88 8.1
2008-05-05 10:11:30 51°13.665 2°55.954 127 -999 210 8.1
2008-05-05 10:11:35 51°13.665 2°55.954 127 -999 98 8.1
2008-05-05 10:11:40 51°13.665 2°55.954 127 -999 48 8
2008-05-05 10:11:45 51°13.665 2°55.954 127 -999 104 8.1
2008-05-05 10:11:50 51°13.665 2°55.954 127 -999 227 8.2
2008-05-05 10:11:55 51°13.665 2°55.954 127 -999 16 8
2008-05-05 10:12:00 51°13.665 2°55.954 127.1 -999 182 7.9
2008-05-05 10:12:05 51°13.665 2°55.954 127.2 -999 226 8.2
2008-05-05 10:12:10 51°13.665 2°55.954 127.2 -999 7 8
2008-05-05 10:12:15 51°13.665 2°55.954 127.3 -999 55 8.1
2008-05-05 10:12:19 51°13.665 2°55.954 127.3 -999 47 8.1
2008-05-05 10:12:25 51°13.665 2°55.954 127.3 -999 85 7.9
2008-05-05 10:12:30 51°13.665 2°55.954 127.3 -999 207 8.1
2008-05-05 10:12:35 51°13.665 2°55.954 127.2 -999 329 8
2008-05-05 10:12:40 51°13.665 2°55.954 127.2 -999 35 7.9
2008-05-05 10:12:45 51°13.665 2°55.954 127 -999 74 7.9
2008-05-05 10:12:50 51°13.665 2°55.954 126.9 -999 279 7.9
2008-05-05 10:12:55 51°13.665 2°55.954 126.9 -999 258 8.1
2008-05-05 10:13:00 51°13.665 2°55.954 126.7 -999 202 8.1
2008-05-05 10:13:05 51°13.665 2°55.954 126.7 -999 138 8.2
2008-05-05 10:13:10 51°13.665 2°55.954 126.7 -999 219 8.2
2008-05-05 10:13:15 51°13.665 2°55.954 126.7 -999 147 8.2
2008-05-05 10:13:20 51°13.665 2°55.954 126.7 -999 202 8.1
2008-05-05 10:13:25 51°13.665 2°55.954 126.7 -999 177 8.2
2008-05-05 10:13:30 51°13.665 2°55.954 126.8 0.1 69 8.2
2008-05-05 10:13:35 51°13.665 2°55.954 126.9 -999 113 8.1
2008-05-05 10:13:40 51°13.665 2°55.954 126.9 -999 103 -999
2008-05-05 10:13:45 51°13.665 2°55.954 127 -999 264 8.1
2008-05-05 10:13:50 51°13.665 2°55.954 127 -999 5 8.2
2008-05-05 10:13:55 51°13.665 2°55.954 127.1 -999 350 8
2008-05-05 10:14:00 51°13.665 2°55.954 127.1 -999 29 8.1
2008-05-05 10:14:05 51°13.665 2°55.954 127.1 -999 88 8.2
2008-05-05 10:14:10 51°13.665 2°55.954 127.1 -999 37 8.1
2008-05-05 10:14:15 51°13.665 2°55.954 126.9 -999 320 8.1
2008-05-05 10:14:20 51°13.665 2°55.954 126.8 -999 308 8.1
2008-05-05 10:14:25 51°13.665 2°55.954 126.7 -999 359 8.1
2008-05-05 10:14:30 51°13.665 2°55.953 126.5 0.1 317 8
2008-05-05 10:14:35 51°13.665 2°55.953 126.3 0.1 319 8.2
2008-05-05 10:14:40 51°13.665 2°55.953 126.1 -999 310 8.2
2008-05-05 10:14:45 51°13.665 2°55.953 125.9 -999 237 -999
2008-05-05 10:14:50 51°13.665 2°55.953 125.7 -999 92 8.2
2008-05-05 10:14:55 51°13.665 2°55.953 125.6 -999 24 8.3
2008-05-05 10:15:00 51°13.665 2°55.954 125.6 -999 198 8.2
2008-05-05 10:15:05 51°13.665 2°55.953 125.6 -999 285 8.2
2008-05-05 10:15:10 51°13.665 2°55.954 125.5 -999 29 8.1
2008-05-05 10:15:15 51°13.665 2°55.954 125.5 -999 183 8.2
2008-05-05 10:15:20 51°13.665 2°55.954 125.5 -999 197 -999
2008-05-05 10:15:25 51°13.665 2°55.954 125.6 -999 209 8.1
2008-05-05 10:15:30 51°13.665 2°55.954 125.7 -999 208 8.3
2008-05-05 10:15:35 51°13.665 2°55.954 125.8 -999 39 8.2
2008-05-05 10:15:40 51°13.665 2°55.954 125.8 -999 292 8.2
2008-05-05 10:15:45 51°13.665 2°55.954 125.9 -999 326 8
2008-05-05 10:15:50 51°13.665 2°55.954 125.9 -999 252 8.3
2008-05-05 10:15:55 51°13.665 2°55.954 125.9 -999 81 8.2
2008-05-05 10:16:00 51°13.665 2°55.954 125.7 -999 74 8.1
2008-05-05 10:16:05 51°13.665 2°55.954 125.7 -999 227 8.3
2008-05-05 10:16:10 51°13.665 2°55.954 125.6 -999 327 8.1
2008-05-05 10:16:15 51°13.665 2°55.954 125.5 -999 229 8.2
2008-05-05 10:16:20 51°13.665 2°55.954 125.5 -999 221 8.3
2008-05-05 10:16:25 51°13.665 2°55.954 125.5 -999 93 8.2
2008-05-05 10:16:30 51°13.665 2°55.954 125.5 -999 62 8.3
2008-05-05 10:16:35 51°13.665 2°55.954 125.5 -999 37 8.3
2008-05-05 10:16:40 51°13.665 2°55.954 125.5 -999 67 8.3
2008-05-05 10:16:45 51°13.665 2°55.954 125.5 -999 132 8.2
2008-05-05 10:16:50 51°13.665 2°55.954 125.5 -999 68 8.2
2008-05-05 10:16:55 51°13.665 2°55.954 125.5 -999 55 8.1
2008-05-05 10:17:00 51°13.665 2°55.954 125.7 -999 54 8.2
2008-05-05 10:17:05 51°13.665 2°55.955 125.8 -999 122 8.2
2008-05-05 10:17:10 51°13.665 2°55.955 125.9 -999 178 8.2
2008-05-05 10:17:15 51°13.665 2°55.955 126 -999 117 8.1
2008-05-05 10:17:20 51°13.665 2°55.955 126 -999 167 8.3
2008-05-05 10:17:25 51°13.665 2°55.955 126.1 -999 195 8.3
2008-05-05 10:17:30 51°13.665 2°55.955 126.1 -999 159 8.3
2008-05-05 10:17:35 51°13.665 2°55.955 126.2 -999 104 8.3
2008-05-05 10:17:40 51°13.665 2°55.955 126.4 -999 305 8.2
2008-05-05 10:17:45 51°13.665 2°55.955 126.5 -999 247 8.3
2008-05-05 10:17:50 51°13.665 2°55.955 126.6 -999 192 8.3
2008-05-05 10:17:55 51°13.665 2°55.955 126.7 -999 205 8.1
2008-05-05 10:18:00 51°13.665 2°55.955 126.7 -999 17 8.1
2008-05-05 10:18:05 51°13.665 2°55.956 126.7 -999 110 8.2
2008-05-05 10:18:10 51°13.665 2°55.956 126.7 -999 243 8.3
2008-05-05 10:18:15 51°13.665 2°55.956 126.7 -999 99 8.1
2008-05-05 10:18:20 51°13.665 2°55.956 126.7 -999 158 8.2
2008-05-05 10:18:25 51°13.665 2°55.956 126.7 -999 97 8.4
2008-05-05 10:18:30 51°13.665 2°55.956 126.7 -999 215 8.4
2008-05-05 10:18:35 51°13.665 2°55.956 126.7 -999 279 8.4
2008-05-05 10:18:40 51°13.665 2°55.956 126.6 -999 293 8.4
2008-05-05 10:18:45 51°13.665 2°55.956 126.6 -999 285 8.2
2008-05-05 10:18:50 51°13.665 2°55.955 126.5 -999 248 8.2
2008-05-05 10:18:55 51°13.665 2°55.955 126.3 -999 297 -999
2008-05-05 10:19:00 51°13.665 2°55.955 126.2 -999 263 8.2
2008-05-05 10:19:05 51°13.665 2°55.955 126.1 -999 9 8.3
2008-05-05 10:19:10 51°13.665 2°55.955 126 -999 258 8.3
2008-05-05 10:19:15 51°13.665 2°55.955 125.8 -999 11 8.4
2008-05-05 10:19:20 51°13.665 2°55.955 125.7 -999 227 8.2
2008-05-05 10:19:25 51°13.666 2°55.955 125.5 -999 115 8.4
2008-05-05 10:19:30 51°13.666 2°55.955 125.5 -999 143 8.2
2008-05-05 10:19:35 51°13.665 2°55.955 125.5 -999 171 8.3
2008-05-05 10:19:40 51°13.665 2°55.955 125.5 -999 179 -999
2008-05-05 10:19:45 51°13.665 2°55.955 125.6 -999 138 8.3
2008-05-05 10:19:50 51°13.665 2°55.955 125.8 -999 182 8.4
2008-05-05 10:19:55 51°13.665 2°55.955 126 -999 169 8.2
2008-05-05 10:20:00 51°13.666 2°55.955 126.2 -999 183 8.3
2008-05-05 10:20:05 51°13.666 2°55.955 126.4 -999 167 -999
2008-05-05 10:20:10 51°13.666 2°55.955 126.6 -999 235 8.4
2008-05-05 10:20:15 51°13.666 2°55.955 126.7 -999 71 8.4
2008-05-05 10:20:20 51°13.665 2°55.955 126.8 -999 230 8.4
2008-05-05 10:20:25 51°13.666 2°55.955 126.8 -999 12 8.3
2008-05-05 10:20:30 51°13.666 2°55.955 126.8 -999 28 8.4
2008-05-05 10:20:35 51°13.666 2°55.955 126.8 -999 284 8.3
2008-05-05 10:20:40 51°13.666 2°55.955 126.7 -999 23 8.4
2008-05-05 10:20:45 51°13.666 2°55.955 126.6 -999 342 8.2
2008-05-05 10:20:50 51°13.666 2°55.955 126.4 -999 213 8.4
2008-05-05 10:20:55 51°13.666 2°55.955 126.3 -999 151 8.4
2008-05-05 10:21:00 51°13.666 2°55.955 126.2 -999 165 8.3
2008-05-05 10:21:05 51°13.666 2°55.955 126.2 -999 15 8.3
2008-05-05 10:21:10 51°13.666 2°55.955 126.2 -999 161 8.5
2008-05-05 10:21:15 51°13.666 2°55.955 126.2 -999 126 8.3
2008-05-05 10:21:20 51°13.666 2°55.955 126.2 -999 224 8.3
2008-05-05 10:21:25 51°13.666 2°55.955 126.2 -999 191 8.3
2008-05-05 10:21:30 51°13.666 2°55.955 126.2 -999 31 8.3
2008-05-05 10:21:35 51°13.666 2°55.955 126.2 -999 154 8.4
2008-05-05 10:21:40 51°13.666 2°55.955 126.2 -999 186 8.4
2008-05-05 10:21:45 51°13.666 2°55.955 126.3 -999 124 8.4
2008-05-05 10:21:50 51°13.666 2°55.955 126.3 -999 157 8.4
2008-05-05 10:21:55 51°13.666 2°55.955 126.4 -999 269 8.3
2008-05-05 10:22:00 51°13.666 2°55.955 126.4 -999 309 8.5
2008-05-05 10:22:05 51°13.665 2°55.955 126.5 -999 175 8.5
2008-05-05 10:22:10 51°13.665 2°55.955 126.6 -999 138 8.4
2008-05-05 10:22:15 51°13.666 2°55.955 126.6 -999 323 -999
2008-05-05 10:22:20 51°13.666 2°55.955 126.6 -999 292 8.4
2008-05-05 10:22:25 51°13.666 2°55.955 126.6 -999 173 8.5
2008-05-05 10:22:30 51°13.666 2°55.955 126.7 -999 208 8.4
2008-05-05 10:22:35 51°13.666 2°55.955 126.7 0.1 306 8.5
2008-05-05 10:22:40 51°13.666 2°55.955 126.8 -999 100 8.6
2008-05-05 10:22:45 51°13.666 2°55.955 126.8 -999 145 8.5
2008-05-05 10:22:50 51°13.666 2°55.955 126.7 -999 243 -999
2008-05-05 10:22:55 51°13.666 2°55.955 126.7 -999 99 8.4
2008-05-05 10:23:00 51°13.666 2°55.955 126.7 -999 134 8.3
2008-05-05 10:23:05 51°13.665 2°55.955 126.8 -999 124 8.7
2008-05-05 10:23:10 51°13.665 2°55.955 126.9 -999 185 8.5
2008-05-05 10:23:15 51°13.665 2°55.955 126.9 -999 9 8.5
2008-05-05 10:23:20 51°13.665 2°55.955 127 -999 88 8.6
2008-05-05 10:23:25 51°13.665 2°55.955 127.1 0.1 126 8.5
2008-05-05 10:23:30 51°13.665 2°55.954 127.2 -999 122 8.5
2008-05-05 10:23:35 51°13.665 2°55.954 127.3 -999 286 8.6
2008-05-05 10:23:40 51°13.665 2°55.954 127.3 -999 317 8.5
2008-05-05 10:23:45 51°13.665 2°55.954 127.4 -999 356 8.5
2008-05-05 10:23:50 51°13.665 2°55.954 127.4 -999 97 8.5
2008-05-05 10:23:55 51°13.665 2°55.955 127.5 -999 77 8.5
2008-05-05 10:24:00 51°13.665 2°55.955 127.5 -999 87 8.6
2008-05-05 10:24:05 51°13.665 2°55.955 127.4 -999 187 8.6
2008-05-05 10:24:10 51°13.665 2°55.955 127.3 -999 323 8.5
2008-05-05 10:24:15 51°13.665 2°55.954 127.2 -999 266 8.5
2008-05-05 10:24:20 51°13.665 2°55.954 127.2 -999 84 8.5
2008-05-05 10:24:25 51°13.665 2°55.954 127.2 -999 168 8.6
2008-05-05 10:24:30 51°13.665 2°55.954 127.2 -999 271 8.6
2008-05-05 10:24:35 51°13.665 2°55.954 127.2 -999 1 8.6
2008-05-05 10:24:40 51°13.665 2°55.955 127.2 -999 278 8.5
2008-05-05 10:24:45 51°13.665 2°55.955 127.2 -999 300 8.4
2008-05-05 10:24:50 51°13.665 2°55.955 127.2 -999 40 8.7
2008-05-05 10:24:55 51°13.665 2°55.955 127.2 -999 135 8.7
2008-05-05 10:25:00 51°13.665 2°55.955 127.2 -999 176 8.7
2008-05-05 10:25:05 51°13.665 2°55.955 127.2 -999 233 8.6
2008-05-05 10:25:10 51°13.665 2°55.955 127.3 -999 87 8.6
2008-05-05 10:25:15 51°13.665 2°55.955 127.4 -999 121 8.5
2008-05-05 10:25:20 51°13.665 2°55.955 127.5 -999 54 8.6
2008-05-05 10:25:25 51°13.665 2°55.955 127.5 -999 173 8.6
2008-05-05 10:25:30 51°13.665 2°55.955 127.5 -999 21 8.7
2008-05-05 10:25:35 51°13.665 2°55.955 127.7 -999 148 8.6
2008-05-05 10:25:40 51°13.665 2°55.955 127.8 -999 98 8.7
2008-05-05 10:25:45 51°13.665 2°55.955 127.9 -999 67 8.6
2008-05-05 10:25:50 51°13.665 2°55.955 127.8 -999 281 8.5
2008-05-05 10:25:55 51°13.665 2°55.955 127.7 -999 269 8.5
2008-05-05 10:26:00 51°13.665 2°55.955 127.7 -999 178 8.5
2008-05-05 10:26:05 51°13.665 2°55.955 127.7 -999 180 8.5
2008-05-05 10:26:10 51°13.665 2°55.955 127.9 -999 206 8.7
2008-05-05 10:26:15 51°13.665 2°55.955 128 -999 254 8.6
2008-05-05 10:26:20 51°13.665 2°55.955 128.1 -999 263 8.7
2008-05-05 10:26:25 51°13.665 2°55.955 128.2 -999 315 8.7
2008-05-05 10:26:30 51°13.665 2°55.955 128.3 -999 357 8.5
2008-05-05 10:26:35 51°13.665 2°55.955 128.4 -999 14 8.7
2008-05-05 10:26:40 51°13.665 2°55.955 128.4 -999 17 8.5
2008-05-05 10:26:45 51°13.665 2°55.955 128.3 -999 320 8.6
2008-05-05 10:26:50 51°13.665 2°55.955 128 -999 19 8.6
2008-05-05 10:26:55 51°13.665 2°55.955 127.8 -999 31 8.5
2008-05-05 10:27:00 51°13.665 2°55.955 127.6 0.1 349 8.7
2008-05-05 10:27:05 51°13.665 2°55.955 127.5 -999 91 8.7
2008-05-05 10:27:10 51°13.665 2°55.955 127 -999 206 -999
2008-05-05 10:27:15 51°13.665 2°55.955 126.9 -999 298 8.6
2008-05-05 10:27:20 51°13.665 2°55.955 126.8 -999 294 8.6
2008-05-05 10:27:25 51°13.665 2°55.955 126.7 -999 352 8.6
2008-05-05 10:27:30 51°13.665 2°55.955 126.7 -999 350 8.5
2008-05-05 10:27:35 51°13.665 2°55.955 126.6 -999 56 8.6
2008-05-05 10:27:40 51°13.665 2°55.955 126.6 -999 128 8.4
2008-05-05 10:27:45 51°13.665 2°55.955 126.5 -999 202 8.7
2008-05-05 10:27:50 51°13.665 2°55.955 126.5 -999 90 8.6
2008-05-05 10:27:55 51°13.665 2°55.955 126.5 -999 104 8.5
2008-05-05 10:28:00 51°13.665 2°55.955 126.5 -999 193 8.5
2008-05-05 10:28:05 51°13.665 2°55.955 126.5 -999 278 8.4
2008-05-05 10:28:10 51°13.665 2°55.955 126.5 -999 320 8.5
2008-05-05 10:28:15 51°13.665 2°55.955 126.6 -999 321 8.5
2008-05-05 10:28:20 51°13.665 2°55.955 126.6 -999 181 8.5
2008-05-05 10:28:25 51°13.665 2°55.955 126.6 -999 66 8.5
2008-05-05 10:28:30 51°13.665 2°55.955 126.6 -999 286 8.6
2008-05-05 10:28:35 51°13.665 2°55.955 126.6 -999 251 8.8
2008-05-05 10:28:40 51°13.665 2°55.955 126.5 -999 287 8.6
2008-05-05 10:28:45 51°13.665 2°55.955 126.5 -999 23 8.7
2008-05-05 10:28:50 51°13.665 2°55.955 126.5 -999 22 8.7
2008-05-05 10:28:55 51°13.665 2°55.955 126.5 -999 320 8.8
2008-05-05 10:29:00 51°13.665 2°55.955 126.5 -999 256 8.7
2008-05-05 10:29:05 51°13.665 2°55.955 126.5 -999 242 8.6
2008-05-05 10:29:10 51°13.665 2°55.955 126.5 -999 260 8.6
2008-05-05 10:29:15 51°13.665 2°55.955 126.5 -999 257 8.7
2008-05-05 10:29:20 51°13.665 2°55.955 126.5 -999 14 8.5
2008-05-05 10:29:25 51°13.665 2°55.955 126.6 -999 243 8.8
2008-05-05 10:29:30 51°13.665 2°55.955 126.6 -999 348 -999
2008-05-05 10:29:35 51°13.665 2°55.955 126.5 0.1 287 8.7
2008-05-05 10:29:40 51°13.665 2°55.955 126.5 0.1 300 8.6
2008-05-05 10:29:45 51°13.665 2°55.955 126.8 -999 223 8.7
2008-05-05 10:29:50 51°13.665 2°55.955 127 -999 27 8.6
2008-05-05 10:29:55 51°13.665 2°55.955 127.2 -999 15 8.8
2008-05-05 10:30:00 51°13.665 2°55.955 127.2 -999 32 8.7
2008-05-05 10:30:05 51°13.665 2°55.955 127.2 -999 273 -999
2008-05-05 10:30:10 51°13.665 2°55.955 127.2 -999 261 8.7
2008-05-05 10:30:15 51°13.665 2°55.955 127.2 -999 17 8.6
2008-05-05 10:30:20 51°13.665 2°55.955 127.2 -999 129 8.7
2008-05-05 10:30:25 51°13.666 2°55.955 127.1 -999 347 8.7
2008-05-05 10:30:30 51°13.666 2°55.955 127.1 -999 268 8.7
2008-05-05 10:30:35 51°13.666 2°55.955 127.1 -999 28 8.8
2008-05-05 10:30:40 51°13.666 2°55.955 127.1 -999 26 8.8
2008-05-05 10:30:45 51°13.666 2°55.955 127.1 -999 42 8.8
2008-05-05 10:30:50 51°13.666 2°55.955 127.1 -999 334 8.8
2008-05-05 10:30:55 51°13.666 2°55.955 127.1 -999 264 8.8
2008-05-05 10:31:00 51°13.666 2°55.955 127.1 -999 313 8.8
2008-05-05 10:31:05 51°13.666 2°55.955 127.1 -999 331 8.8
2008-05-05 10:31:10 51°13.666 2°55.955 127.1 -999 321 8.8
2008-05-05 10:31:15 51°13.666 2°55.955 127.1 -999 333 8.8
2008-05-05 10:31:20 51°13.666 2°55.955 127.1 -999 272 8.8
2008-05-05 10:31:25 51°13.666 2°55.955 127.1 -999 275 8.7
2008-05-05 10:31:30 51°13.666 2°55.955 127.1 -999 251 8.8
2008-05-05 10:31:35 51°13.666 2°55.955 127.1 -999 355 8.6
2008-05-05 10:31:40 51°13.666 2°55.955 127 -999 261 8.8
2008-05-05 10:31:45 51°13.666 2°55.955 127 -999 265 8.8
2008-05-05 10:31:50 51°13.666 2°55.955 127 -999 358 8.7
2008-05-05 10:31:55 51°13.665 2°55.955 126.9 -999 272 8.7
2008-05-05 10:32:00 51°13.665 2°55.954 127 -999 248 8.8
2008-05-05 10:32:05 51°13.665 2°55.954 127.4 0.1 251 8.8
2008-05-05 10:32:10 51°13.665 2°55.954 127.8 -999 253 8.8
2008-05-05 10:32:15 51°13.665 2°55.955 128.3 0.1 274 8.7
2008-05-05 10:32:20 51°13.665 2°55.954 128.6 0.1 275 8.9
2008-05-05 10:32:25 51°13.665 2°55.954 129 -999 329 8.7
2008-05-05 10:32:30 51°13.665 2°55.954 129.2 -999 271 8.9
2008-05-05 10:32:35 51°13.665 2°55.954 129.3 -999 36 8.9
2008-05-05 10:32:40 51°13.665 2°55.954 129.3 -999 36 8.8
2008-05-05 10:32:45 51°13.666 2°55.954 129.1 0.1 27 8.7
2008-05-05 10:32:50 51°13.666 2°55.954 128.9 0.1 27 8.8
2008-05-05 10:32:55 51°13.666 2°55.953 128.5 -999 21 8.8
2008-05-05 10:33:00 51°13.665 2°55.953 128.2 -999 298 8.8
2008-05-05 10:33:05 51°13.665 2°55.953 127.9 -999 -999 8.8
2008-05-05 10:33:10 51°13.665 2°55.953 127.9 -999 279 8.9
2008-05-05 10:33:15 51°13.665 2°55.953 127.8 -999 329 8.9
2008-05-05 10:33:20 51°13.665 2°55.953 127.8 -999 316 8.8
2008-05-05 10:33:24 51°13.665 2°55.953 127.8 -999 13 8.7
2008-05-05 10:33:30 51°13.665 2°55.953 127.8 -999 247 8.7
2008-05-05 10:33:35 51°13.665 2°55.953 127.7 -999 231 8.6